Time,TemperatureF,DewpointF,PressureIn,WindDirection,WindDirectionDegrees,WindSpeedMPH,WindSpeedGustMPH,Humidity,HourlyPrecipIn,Conditions,Clouds,dailyrainin,SoftwareType,DateUTC
2013-01-20 09:23:00,8.0,-3.0,30.03,NW,323,14.0,22.0,61,0.00,,,0.00,,2013-01-20 15:23:00,
2013-01-20 09:33:00,8.0,-3.0,30.03,NW,316,11.0,21.0,59,0.00,,,0.00,,2013-01-20 15:33:00,
2013-01-20 09:43:00,8.0,-3.0,30.03,NW,316,11.0,21.0,59,0.00,,,0.00,,2013-01-20 15:43:00,
2013-01-20 09:53:00,8.0,-3.0,30.05,NW,319,12.0,19.0,59,0.00,,,0.00,,2013-01-20 15:53:00,
2013-01-20 10:02:00,8.0,-3.0,30.06,NW,322,13.0,20.0,59,0.00,,,0.00,,2013-01-20 16:02:00,
2013-01-20 10:12:00,8.0,-3.0,30.06,NW,322,13.0,20.0,59,0.00,,,0.00,,2013-01-20 16:12:00,
2013-01-20 10:23:00,8.0,-4.0,30.06,NW,323,11.0,20.0,58,0.00,,,0.00,,2013-01-20 16:23:00,
2013-01-20 10:33:00,9.0,-3.0,30.06,NW,324,12.0,19.0,57,0.00,,,0.00,,2013-01-20 16:33:00,
2013-01-20 10:42:00,9.0,-3.0,30.06,NW,324,12.0,19.0,57,0.00,,,0.00,,2013-01-20 16:42:00,
2013-01-20 10:52:00,10.0,-2.0,30.06,NW,321,11.0,19.0,57,0.00,,,0.00,,2013-01-20 16:52:00,
2013-01-20 11:03:00,10.0,-3.0,30.06,NW,320,10.0,19.0,56,0.00,,,0.00,,2013-01-20 17:03:00,
2013-01-20 11:12:00,10.0,-3.0,30.06,NW,320,10.0,19.0,56,0.00,,,0.00,,2013-01-20 17:12:00,
2013-01-20 11:22:00,10.0,-3.0,30.06,NW,321,10.0,18.0,55,0.00,,,0.00,,2013-01-20 17:22:00,
2013-01-20 11:33:00,10.0,-4.0,30.05,NW,324,11.0,20.0,53,0.00,,,0.00,,2013-01-20 17:33:00,
2013-01-20 11:42:00,10.0,-4.0,30.05,NW,324,11.0,20.0,53,0.00,,,0.00,,2013-01-20 17:42:00,
2013-01-20 11:53:00,10.0,-4.0,30.05,NW,315,10.0,19.0,53,0.00,,,0.00,,2013-01-20 17:53:00,
2013-01-20 12:03:00,11.0,-3.0,30.05,NNW,335,12.0,20.0,52,0.00,,,0.00,,2013-01-20 18:03:00,
2013-01-20 12:12:00,11.0,-4.0,30.04,NW,324,11.0,19.0,49,0.00,,,0.00,,2013-01-20 18:12:00,
2013-01-20 12:23:00,11.0,-4.0,30.04,NW,324,11.0,19.0,49,0.00,,,0.00,,2013-01-20 18:23:00,
2013-01-20 12:33:00,11.0,-4.0,30.04,NW,325,11.0,17.0,50,0.00,,,0.00,,2013-01-20 18:33:00,
2013-01-20 12:43:00,11.0,-4.0,30.04,NW,325,11.0,17.0,50,0.00,,,0.00,,2013-01-20 18:43:00,
2013-01-20 12:53:00,11.0,-5.0,30.04,NNW,335,12.0,21.0,48,0.00,,,0.00,,2013-01-20 18:53:00,
2013-01-20 13:02:00,11.0,-5.0,30.04,NW,323,11.0,18.0,48,0.00,,,0.00,,2013-01-20 19:02:00,
2013-01-20 13:12:00,11.0,-5.0,30.04,NW,323,11.0,18.0,48,0.00,,,0.00,,2013-01-20 19:12:00,
2013-01-20 13:22:00,12.0,-5.0,30.04,NW,321,11.0,21.0,46,0.00,,,0.00,,2013-01-20 19:22:00,
2013-01-20 13:33:00,11.0,-6.0,30.03,NW,320,12.0,19.0,46,0.00,,,0.00,,2013-01-20 19:33:00,
2013-01-20 13:42:00,11.0,-6.0,30.03,NW,320,12.0,19.0,46,0.00,,,0.00,,2013-01-20 19:42:00,
2013-01-20 13:52:00,12.0,-5.0,30.03,NW,323,12.0,18.0,46,0.00,,,0.00,,2013-01-20 19:52:00,
2013-01-20 14:03:00,12.0,-4.0,30.03,NW,318,13.0,21.0,47,0.00,,,0.00,,2013-01-20 20:03:00,
2013-01-20 14:12:00,12.0,-4.0,30.03,NW,318,13.0,21.0,47,0.00,,,0.00,,2013-01-20 20:12:00,
2013-01-20 14:22:00,12.0,-5.0,30.03,NW,317,10.0,20.0,45,0.00,,,0.00,,2013-01-20 20:22:00,
2013-01-20 14:33:00,12.0,-5.0,30.03,NW,313,11.0,19.0,46,0.00,,,0.00,,2013-01-20 20:33:00,
2013-01-20 14:42:00,12.0,-5.0,30.03,NW,313,11.0,19.0,46,0.00,,,0.00,,2013-01-20 20:42:00,
2013-01-20 14:53:00,12.0,-5.0,30.03,NW,320,11.0,20.0,45,0.00,,,0.00,,2013-01-20 20:53:00,
2013-01-20 15:03:00,12.0,-5.0,30.03,NW,315,9.0,17.0,46,0.00,,,0.00,,2013-01-20 21:03:00,
2013-01-20 15:13:00,12.0,-5.0,30.03,NW,315,9.0,17.0,46,0.00,,,0.00,,2013-01-20 21:13:00,
2013-01-20 15:23:00,12.0,-6.0,30.03,NW,326,10.0,18.0,44,0.00,,,0.00,,2013-01-20 21:23:00,
2013-01-20 15:33:00,12.0,-5.0,30.03,NW,325,12.0,21.0,46,0.00,,,0.00,,2013-01-20 21:33:00,
2013-01-20 15:43:00,12.0,-5.0,30.03,NW,325,12.0,21.0,46,0.00,,,0.00,,2013-01-20 21:43:00,
2013-01-20 15:53:00,12.0,-5.0,30.03,NW,310,8.0,15.0,46,0.00,,,0.00,,2013-01-20 21:53:00,
2013-01-20 16:03:00,13.0,-5.0,30.03,NW,310,8.0,17.0,44,0.00,,,0.00,,2013-01-20 22:03:00,
2013-01-20 16:12:00,13.0,-5.0,30.03,NW,310,8.0,17.0,44,0.00,,,0.00,,2013-01-20 22:12:00,
2013-01-20 16:22:00,12.0,-6.0,30.03,WNW,302,8.0,17.0,44,0.00,,,0.00,,2013-01-20 22:22:00,
2013-01-20 16:33:00,12.0,-5.0,30.02,NW,310,7.0,14.0,45,0.00,,,0.00,,2013-01-20 22:33:00,
2013-01-20 16:43:00,12.0,-5.0,30.02,NW,310,7.0,14.0,45,0.00,,,0.00,,2013-01-20 22:43:00,
2013-01-20 16:52:00,12.0,-5.0,30.03,NW,321,5.0,10.0,46,0.00,,,0.00,,2013-01-20 22:52:00,
2013-01-20 17:03:00,11.0,-6.0,30.03,NW,305,6.0,11.0,46,0.00,,,0.00,,2013-01-20 23:03:00,
2013-01-20 17:13:00,11.0,-6.0,30.03,NW,305,6.0,11.0,46,0.00,,,0.00,,2013-01-20 23:13:00,
2013-01-20 17:23:00,11.0,-5.0,30.03,WNW,303,5.0,11.0,47,0.00,,,0.00,,2013-01-20 23:23:00,
2013-01-20 17:33:00,11.0,-5.0,30.03,WNW,303,5.0,11.0,47,0.00,,,0.00,,2013-01-20 23:33:00,
2013-01-20 17:42:00,11.0,-5.0,30.03,WNW,303,5.0,11.0,47,0.00,,,0.00,,2013-01-20 23:42:00,
2013-01-20 17:53:00,11.0,-5.0,30.03,WNW,300,5.0,10.0,48,0.00,,,0.00,,2013-01-20 23:53:00,
2013-01-20 18:03:00,10.0,-6.0,30.03,WNW,302,4.0,10.0,48,0.00,,,0.00,,2013-01-21 00:03:00,
2013-01-20 18:13:00,10.0,-6.0,30.03,WNW,302,4.0,10.0,48,0.00,,,0.00,,2013-01-21 00:13:00,
2013-01-20 18:22:00,10.0,-6.0,30.03,NW,305,6.0,11.0,47,0.00,,,0.00,,2013-01-21 00:22:00,
2013-01-20 18:33:00,10.0,-6.0,30.03,WNW,298,5.0,10.0,48,0.00,,,0.00,,2013-01-21 00:33:00,
2013-01-20 18:43:00,10.0,-6.0,30.03,WNW,298,5.0,10.0,48,0.00,,,0.00,,2013-01-21 00:43:00,
2013-01-20 18:53:00,10.0,-5.0,30.03,NW,305,5.0,10.0,49,0.00,,,0.00,,2013-01-21 00:53:00,
2013-01-20 19:03:00,10.0,-7.0,30.03,NW,315,6.0,14.0,46,0.00,,,0.00,,2013-01-21 01:03:00,
2013-01-20 19:12:00,10.0,-7.0,30.03,NW,315,6.0,14.0,46,0.00,,,0.00,,2013-01-21 01:12:00,
2013-01-20 19:23:00,10.0,-7.0,30.03,NW,319,5.0,11.0,46,0.00,,,0.00,,2013-01-21 01:23:00,
2013-01-20 19:33:00,10.0,-7.0,30.03,NW,324,8.0,17.0,45,0.00,,,0.00,,2013-01-21 01:33:00,
2013-01-20 19:43:00,10.0,-7.0,30.03,NW,324,8.0,17.0,45,0.00,,,0.00,,2013-01-21 01:43:00,
2013-01-20 19:52:00,10.0,-6.0,30.03,NNW,335,5.0,11.0,47,0.00,,,0.00,,2013-01-21 01:52:00,
2013-01-20 20:03:00,10.0,-7.0,30.03,NNW,335,7.0,12.0,46,0.00,,,0.00,,2013-01-21 02:03:00,
2013-01-20 20:12:00,10.0,-7.0,30.03,NNW,335,7.0,12.0,46,0.00,,,0.00,,2013-01-21 02:12:00,
2013-01-20 20:23:00,9.0,-6.0,30.03,NNW,333,5.0,11.0,49,0.00,,,0.00,,2013-01-21 02:23:00,
2013-01-20 20:33:00,9.0,-6.0,30.02,NNW,336,6.0,11.0,50,0.00,,,0.00,,2013-01-21 02:33:00,
2013-01-20 20:43:00,9.0,-6.0,30.02,NNW,336,6.0,11.0,50,0.00,,,0.00,,2013-01-21 02:43:00,
2013-01-20 20:53:00,9.0,-7.0,30.02,NNW,336,7.0,14.0,48,0.00,,,0.00,,2013-01-21 02:53:00,
2013-01-20 21:03:00,9.0,-6.0,30.02,NNW,337,8.0,14.0,49,0.00,,,0.00,,2013-01-21 03:03:00,
2013-01-20 21:12:00,9.0,-6.0,30.02,NNW,337,8.0,14.0,49,0.00,,,0.00,,2013-01-21 03:12:00,
2013-01-20 21:23:00,9.0,-6.0,30.02,NNW,337,8.0,14.0,49,0.00,,,0.00,,2013-01-21 03:23:00,
2013-01-20 21:33:00,9.0,-6.0,30.02,NNW,337,8.0,14.0,49,0.00,,,0.00,,2013-01-21 03:33:00,